Location: Beang
(6.6177°N, 10.9863°W)
Time: 22:47:30
(UTC+00:00)

H-2A R/B (2) - Pass Details

Date: 07 June 2020
Orbit: 442 x 34400 km, 28.5° (Epoch: 10 July)

Event Time Altitude Azimuth Distance (km) Brightness Sun altitude
Exits shadow 05:11:16 22° 258° (WSW) 3,586 4.8 -18.2°
Maximum altitude 05:17:10 48° 322° (NW) 1,242 2.9 -16.9°
Drops below altitude 10° 05:20:41 10° 40° (NE) 1,887 5.1 -16.1°
Sets 05:22:07 0° 47° (NE) 2,550 6.2 -15.7°
